[[{"header":{"parameterUnit":"m.s-1","parameterCategory":1,"la1":30.2991,"la2":30.254,"lo1":-89.0895,"lo2":-89.0444,"dy":0.0017,"dx":0.0017,"nx":28,"ny":28,"refTime":"2023-03-20T15:00:00:Z","depth":0,"parameterNumber":2,"parameterNumberName":"U-component_of_WINDS"},"data":[0,0,0,0,0,0,0,0,0,0,0,0,0,0,0,0,0,0,0,0,0,0,0,0,0,0,0,0,0,0,0,0,0,0,0,0,0,0,0,0,0,0,0,0,0,0,0,0,0,0,0,0,0,0,0,0,0,0,-5.3457,-5.3457,0,-5.3519,-5.352,-5.352,-5.3492,-5.3491,-5.3489,-5.3488,-5.3548,-5.3551,-5.3554,0,0,0,0,0,0,0,0,0,0,0,0,0,-5.3311,-5.3314,-5.3457,-5.3457,-5.3458,-5.3519,-5.352,-5.3521,-5.3493,-5.3491,-5.3489,-5.3487,-5.3547,-5.3551,-5.3555,0,0,0,0,0,0,0,0,0,0,0,0,0,-5.3374,-5.3315,-5.3456,-5.3452,-5.3452,-5.3519,-5.352,-5.3521,-5.3493,-5.3491,-5.3488,-5.3486,-5.3546,-5.3551,-5.3555,-5.363,0,0,-5.3569,-5.3571,0,0,0,0,0,0,0,0,-5.337,-5.3379,-5.3451,-5.3452,-5.3452,-5.3496,-5.3491,-5.3557,-5.3494,-5.3477,-5.3488,-5.3485,-5.3532,-5.3538,-5.3555,-5.3632,-5.3635,-5.3569,-5.3572,-5.3574,-5.3575,0,0,0,0,0,0,0,-5.3366,-5.3376,-5.3481,-5.3453,-5.3453,-5.3446,-5.3452,-5.3503,-5.3517,-5.3478,-5.3477,-5.3485,-5.3532,-5.355,-5.3556,-5.3636,-5.3569,-5.3573,-5.3576,-5.3578,-5.3778,-5.378,0,0,0,0,0,0,-5.3362,-5.3373,-5.3479,-5.3483,-5.3405,-5.345,-5.3457,-5.3484,-5.3516,-5.3519,-5.3486,-5.3483,-5.3544,-5.3551,-5.3558,-5.3646,-5.3574,-5.3578,-5.3581,-5.3775,-5.3778,-5.3781,0,0,0,0,0,0,-5.3359,-5.3372,-5.3477,-5.3428,-5.344,-5.3455,-5.3485,-5.3486,-5.3504,-5.3522,-5.3524,-5.3502,-5.3542,-5.3551,-5.3612,-5.3648,-5.358,-5.3585,-5.3772,-5.3776,-5.378,-5.3823,0,0,0,0,0,0,-5.3355,-5.3371,-5.3399,-5.3428,-5.3443,-5.353,-5.3488,-5.3489,-5.3513,-5.3509,-5.3538,-5.354,-5.3541,-5.3605,-5.3617,-5.3653,-5.3588,-5.3769,-5.3774,-5.3779,-5.3819,-5.3828,-5.3837,0,0,0,0,0,-5.335,-5.3409,-5.3401,-5.3414,-5.3479,-5.3532,-5.3541,-5.3541,-5.3516,-5.3544,-5.3556,-5.354,-5.3643,-5.3612,-5.3624,-5.3662,-5.3767,-5.3773,-5.3778,-5.3815,-5.3826,-5.3836,0,0,0,0,0,0,-5.3381,-5.3412,-5.3404,-5.3474,-5.3501,-5.3528,-5.3563,-5.3553,-5.3587,-5.3582,-5.358,-5.3587,-5.3649,-5.3663,-5.3627,-5.3736,-5.3701,-5.3709,-5.3724,-5.3736,-5.3744,-5.3738,-5.3592,0,0,0,0,0,-5.3397,-5.3439,-5.3463,-5.3522,-5.3537,-5.3548,-5.3571,-5.357,-5.3597,-5.3607,-5.3624,-5.365,-5.3688,-5.3713,-5.375,-5.3822,-5.3827,-5.3855,-5.3864,-5.3871,-5.3877,-5.3915,-5.3927,-5.38,-5.38,-5.38,0,0,-5.3428,-5.345,-5.3476,-5.3529,-5.355,-5.3592,-5.3557,-5.3603,-5.3634,-5.3614,-5.3672,-5.3685,-5.3715,-5.3782,-5.3812,-5.3794,-5.3914,-5.3878,-5.3884,-5.3886,-5.3923,-5.3934,-5.3945,-5.3804,-5.3803,-5.3803,0,0,-5.3506,-5.3528,-5.358,-5.3602,-5.3635,-5.3642,-5.3655,-5.3684,-5.3692,-5.3751,-5.3737,-5.3774,-5.3841,-5.3862,-5.3881,-5.3972,-5.3957,-5.3984,-5.4028,-5.4066,-5.4076,-5.4084,-5.4114,-5.4125,-5.3991,-5.3991,-5.3991,0,-5.354,-5.3604,-5.3607,-5.3654,-5.3678,-5.3665,-5.3716,-5.3737,-5.378,-5.3796,-5.3777,-5.386,-5.3879,-5.395,-5.3973,-5.399,-5.4003,-5.3978,-5.4074,-5.4083,-5.4091,-5.412,-5.4131,-5.3994,-5.3993,-5.3993,-5.3993,0,-5.3644,-5.3688,-5.3726,-5.3769,-5.3797,-5.3846,-5.3856,-5.3884,-5.3881,-5.3891,-5.3951,-5.3975,-5.4015,-5.4033,-5.403,-5.4104,-5.4092,-5.4074,-5.4038,-5.4106,-5.4133,-5.4144,-5.3998,-5.3997,-5.3996,-5.3995,0,0,-5.3738,-5.3785,-5.3798,-5.3818,-5.3854,-5.3888,-5.3938,-5.3979,-5.4002,-5.4034,-5.4073,-5.4132,-5.4116,-5.4138,-5.4138,-5.4172,-5.4239,-5.4149,-5.415,-5.4163,-5.4321,-5.4331,-5.4344,-5.4232,-5.4234,-5.4236,-5.4317,0,-5.3817,-5.3903,-5.3909,-5.3987,-5.4027,-5.4017,-5.406,-5.4087,-5.4099,-5.4134,-5.4147,-5.4187,-5.4164,-5.4178,-5.4211,-5.4224,-5.427,-5.4219,-5.4267,-5.4269,-5.4256,-5.4358,-5.4369,-5.4445,-5.4328,-5.433,-5.4331,0,-5.3919,-5.3954,-5.4036,-5.4068,-5.4086,-5.4124,-5.4162,-5.4198,-5.4228,-5.4234,-5.4261,-5.4257,-5.4307,-5.4273,-5.4341,-5.4306,-5.4327,-5.4337,-5.434,-5.4341,-5.4301,-5.4359,-5.4469,-5.4479,-5.4348,-5.4347,-5.4345,0,-5.3976,-5.4045,-5.4103,-5.412,-5.416,-5.4187,-5.4204,-5.4233,-5.4258,-5.4292,-5.4308,-5.4348,-5.4369,-5.4399,-5.4406,-5.4381,-5.4474,-5.444,-5.4478,-5.4478,-5.4494,-5.4493,-5.4606,-5.4514,-5.4514,-5.4514,-5.4514,0,-5.4061,-5.4111,-5.4129,-5.4164,-5.4221,-5.4228,-5.4282,-5.4298,-5.4325,-5.4362,-5.4357,-5.4392,-5.4401,-5.4438,-5.4444,-5.4499,-5.4509,-5.4514,-5.4514,-5.4512,-5.4511,-5.4523,-5.4516,-5.4517,-5.4516,-5.4516,-5.4515,0,-5.4132,-5.4147,-5.4209,-5.4243,-5.4253,-5.4292,-5.432,-5.4354,-5.4366,-5.4414,-5.4426,-5.4445,-5.4488,-5.45,-5.4551,-5.4555,-5.4619,-5.4616,-5.4608,-5.4607,-5.4644,-5.4639,-5.4765,-5.4781,-5.4682,-5.4683,-5.4684,0,-5.4183,-5.4222,-5.426,-5.4286,-5.4305,-5.4346,-5.4372,-5.4382,-5.4409,-5.4448,-5.4477,-5.452,-5.4555,-5.4625,-5.4643,-5.4683,-5.4678,-5.472,-5.4684,-5.4681,-5.4676,-5.4672,-5.4675,-5.4725,-5.4726,-5.4727,-5.4728,0,-5.4272,-5.4278,-5.4316,-5.4357,-5.4389,-5.4422,-5.4453,-5.4474,-5.4488,-5.4519,-5.4564,-5.4592,-5.4646,-5.4688,-5.4729,-5.4746,-5.4739,-5.474,-5.4751,-5.4747,-5.474,-5.4741,-5.4623,-5.4736,-5.4735,-5.4735,-5.4734,-5.4734,-5.4332,-5.4366,-5.4398,-5.4441,-5.4467,-5.4497,-5.453,-5.4548,-5.4586,-5.4631,-5.4635,-5.4684,-5.4715,-5.4769,-5.4789,-5.4827,-5.4814,-5.483,-5.4833,-5.4836,-5.4838,-5.4738,-5.4835,-5.4835,-5.4835,-5.4835,-5.4834,0,-5.4417,-5.4439,-5.4479,-5.4524,-5.4558,-5.4552,-5.4587,-5.4615,-5.4658,-5.4688,-5.4724,-5.4776,-5.4818,-5.4841,-5.4882,-5.4908,-5.4906,-5.4919,-5.4915,-5.4919,-5.4848,-5.4834,-5.492,-5.492,-5.492,-5.492,-5.492,-5.492,-5.4465,-5.4522,-5.4532,-5.4601,-5.4622,-5.4671,-5.4691,-5.4719,-5.4743,-5.4802,-5.4837,-5.4853,-5.488,-5.4924,-5.4963,-5.4968,-5.4982,-5.4996,-5.5,-5.4933,-5.4924,-5.4915,-5.4901,-5.5,-5.5,-5.5067,-5.5067,-5.5068]},{"header":{"parameterUnit":"m.s-1","parameterCategory":1,"la1":30.2991,"la2":30.254,"lo1":-89.0895,"lo2":-89.0444,"dy":0.0017,"dx":0.0017,"nx":28,"ny":28,"refTime":"2023-03-20T15:00:00:Z","depth":0,"parameterNumber":3,"parameterNumberName":"V-component_of_WINDS"},"data":[0,0,0,0,0,0,0,0,0,0,0,0,0,0,0,0,0,0,0,0,0,0,0,0,0,0,0,0,0,0,0,0,0,0,0,0,0,0,0,0,0,0,0,0,0,0,0,0,0,0,0,0,0,0,0,0,0,0,2.6211,2.6211,0,2.6215,2.6215,2.6215,2.6244,2.6244,2.6245,2.6246,2.6246,2.6245,2.6245,0,0,0,0,0,0,0,0,0,0,0,0,0,2.6223,2.6223,2.6211,2.6211,2.6211,2.6215,2.6215,2.6216,2.6243,2.6244,2.6245,2.6246,2.6246,2.6245,2.6245,0,0,0,0,0,0,0,0,0,0,0,0,0,2.6221,2.6222,2.6211,2.6225,2.6227,2.6215,2.6215,2.6216,2.6243,2.6244,2.6245,2.6246,2.6246,2.6245,2.6245,2.6218,0,0,2.6242,2.6241,0,0,0,0,0,0,0,0,2.6221,2.6221,2.6223,2.6224,2.6226,2.623,2.622,2.6216,2.6243,2.6237,2.6246,2.6247,2.624,2.6239,2.6238,2.6218,2.6218,2.6242,2.6241,2.6241,2.624,0,0,0,0,0,0,0,2.6222,2.6221,2.6212,2.6223,2.6225,2.6231,2.6232,2.6219,2.6232,2.6238,2.624,2.624,2.624,2.6238,2.6238,2.6218,2.6242,2.6241,2.624,2.624,2.6178,2.6177,0,0,0,0,0,0,2.622,2.6221,2.6212,2.6213,2.6226,2.623,2.6231,2.6228,2.6232,2.6234,2.6239,2.6241,2.624,2.6239,2.6238,2.6208,2.6241,2.624,2.6239,2.6179,2.6178,2.6177,0,0,0,0,0,0,2.622,2.6219,2.6212,2.6217,2.6217,2.6229,2.6225,2.6227,2.6225,2.6234,2.6236,2.6235,2.624,2.6239,2.6223,2.6209,2.6239,2.6238,2.618,2.6179,2.6177,2.6148,0,0,0,0,0,0,2.6221,2.6219,2.621,2.6217,2.6217,2.6198,2.6224,2.6227,2.6224,2.6227,2.623,2.6232,2.6241,2.6225,2.6222,2.6208,2.6238,2.6182,2.618,2.6178,2.6151,2.6146,2.6142,0,0,0,0,0,2.6221,2.62,2.6209,2.6208,2.6205,2.6197,2.6197,2.6209,2.6223,2.6213,2.6219,2.6232,2.6211,2.6223,2.622,2.6206,2.6183,2.618,2.6178,2.6153,2.6147,2.6142,0,0,0,0,0,0,2.6188,2.6201,2.6211,2.6192,2.6194,2.6202,2.619,2.6203,2.6199,2.6202,2.6216,2.6216,2.6199,2.62,2.6214,2.6181,2.6199,2.6196,2.618,2.6175,2.6171,2.6171,2.6237,0,0,0,0,0,2.618,2.6173,2.6184,2.6166,2.6167,2.6178,2.6175,2.6185,2.6186,2.6187,2.6191,2.6191,2.6185,2.618,2.6174,2.6151,2.6152,2.614,2.6135,2.6132,2.6129,2.6118,2.6113,2.6169,2.6169,2.6169,0,0,2.616,2.6166,2.6161,2.616,2.6162,2.6155,2.6179,2.6169,2.6164,2.6185,2.6171,2.6174,2.6175,2.6156,2.6147,2.6157,2.6114,2.6129,2.6126,2.6125,2.6115,2.611,2.6105,2.6167,2.6168,2.6168,0,0,2.6121,2.6125,2.6112,2.6114,2.6118,2.6126,2.6123,2.613,2.6134,2.612,2.6136,2.6129,2.6118,2.6118,2.6117,2.608,2.6092,2.6078,2.6055,2.6044,2.604,2.6036,2.6024,2.6019,2.6075,2.6075,2.6075,0,2.6097,2.6087,2.6103,2.6093,2.6092,2.6113,2.6099,2.61,2.6101,2.61,2.6111,2.6098,2.61,2.6082,2.6073,2.6071,2.6068,2.6077,2.6039,2.6036,2.6032,2.6021,2.6016,2.6073,2.6073,2.6073,2.6074,0,2.6057,2.605,2.6039,2.6042,2.604,2.6028,2.6041,2.6036,2.6046,2.6053,2.604,2.6043,2.6039,2.6036,2.6044,2.6019,2.6025,2.6037,2.6056,2.6025,2.6015,2.601,2.6071,2.6071,2.6072,2.6072,0,0,2.5998,2.6011,2.6006,2.6009,2.6015,2.601,2.5999,2.5997,2.5994,2.5994,2.5985,2.5976,2.5988,2.5986,2.5995,2.5986,2.5958,2.6,2.6,2.5993,2.5932,2.5923,2.5918,2.5966,2.5965,2.5965,2.5932,0,2.5962,2.5946,2.596,2.5941,2.5935,2.5955,2.5946,2.5949,2.5955,2.595,2.5957,2.595,2.5966,2.5966,2.5957,2.5963,2.5946,2.5966,2.5958,2.5958,2.5958,2.5912,2.5903,2.5872,2.5928,2.5927,2.5927,0,2.5917,2.5918,2.5899,2.5909,2.5907,2.5898,2.5899,2.5894,2.5897,2.5903,2.5902,2.5914,2.5904,2.5922,2.5908,2.5921,2.5919,2.5921,2.592,2.592,2.5941,2.5912,2.5862,2.5857,2.592,2.5921,2.5921,0,2.5878,2.5873,2.5862,2.5863,2.5873,2.5867,2.5871,2.5876,2.5874,2.5874,2.5873,2.5871,2.5869,2.5867,2.5878,2.589,2.5863,2.5882,2.5867,2.5867,2.586,2.5861,2.581,2.5858,2.5858,2.5858,2.5858,0,2.5836,2.5824,2.5845,2.5837,2.5825,2.5841,2.5827,2.5832,2.5837,2.5831,2.5847,2.5841,2.5856,2.5851,2.5859,2.5847,2.5846,2.585,2.5852,2.5849,2.5848,2.5848,2.585,2.5857,2.5857,2.5857,2.5857,0,2.579,2.5803,2.5792,2.5803,2.5806,2.5796,2.5805,2.5799,2.5807,2.5799,2.5798,2.581,2.5806,2.5817,2.5813,2.5818,2.5802,2.5807,2.5801,2.5803,2.5788,2.579,2.5736,2.573,2.578,2.578,2.5779,0,2.5763,2.5755,2.5766,2.5764,2.5767,2.5764,2.5763,2.5778,2.5777,2.5781,2.5774,2.5771,2.577,2.5761,2.5769,2.5766,2.5772,2.5754,2.5772,2.5769,2.5773,2.5774,2.5774,2.575,2.5749,2.5749,2.5748,0,2.5715,2.5722,2.5721,2.5723,2.5722,2.5723,2.5726,2.5723,2.5739,2.5736,2.5733,2.5732,2.573,2.5727,2.5726,2.5729,2.5741,2.5743,2.5739,2.5736,2.5734,2.5736,2.5792,2.5744,2.5744,2.5745,2.5745,2.5745,2.5678,2.5672,2.568,2.5678,2.5682,2.5685,2.568,2.5688,2.5686,2.5686,2.5695,2.569,2.5694,2.5696,2.5697,2.5693,2.5701,2.5696,2.5695,2.5694,2.5692,2.5734,2.5693,2.5693,2.5693,2.5693,2.5693,0,2.5632,2.5638,2.5637,2.5641,2.564,2.5653,2.5657,2.5655,2.5651,2.5655,2.5654,2.565,2.5647,2.5656,2.5654,2.5649,2.5655,2.5649,2.5649,2.565,2.5684,2.5688,2.5644,2.5644,2.5644,2.5644,2.5644,2.5644,2.5608,2.5599,2.5607,2.56,2.5606,2.5603,2.5604,2.5606,2.561,2.5606,2.5604,2.561,2.5616,2.5615,2.5614,2.5616,2.5615,2.5607,2.5611,2.5643,2.5647,2.5652,2.5656,2.5606,2.5606,2.5578,2.5578,2.5578]}]]